When you browse on this site, cookies collect data to enhance your experience and personalize the content and advertising you see.
Visit our Privacy Policy to learn more. By continuing to use the site, you agree to this use of cookies and data.
  • In Lithuania
  • List of Countries
  • For 7 days
  • Water Temperature
  • Satellite Maps
  • Weather Map
  • Weather Widgets
  • user-avatar
    Login

    Hourly Weather Shkoder

    Today, 27 May, Monday

    Time Temperature Precipitation Wind Pressure Humidity
    00:00 +18°C° 0.1 mm 2 mps 738 mmHg 71%
    01:00 +18°C° 0.1 mm 3 mps 738 mmHg 72%
    02:00 +18°C° 0.1 mm 2 mps 738 mmHg 73%
    03:00 +18°C° 0.1 mm 2 mps 738 mmHg 74%
    04:00 +18°C° 0.1 mm 2 mps 738 mmHg 76%
    05:00 +19°C° 0.4 mm 1 mps 738 mmHg 78%
    06:00 +20°C° 0.4 mm 1 mps 738 mmHg 80%
    07:00 +20°C° 0.4 mm 1 mps 738 mmHg 82%
    08:00 +21°C° 0.7 mm 1 mps 738 mmHg 81%
    09:00 +21°C° 0.7 mm 1 mps 738 mmHg 80%
    10:00 +22°C° 0.7 mm 1 mps 738 mmHg 80%
    11:00 +22°C° 0.7 mm 1 mps 737 mmHg 80%
    12:00 +22°C° 0.7 mm 1 mps 737 mmHg 80%
    13:00 +22°C° 0.7 mm 1 mps 737 mmHg 80%
    14:00 +23°C° 0.6 mm 1 mps 736 mmHg 77%
    15:00 +23°C° 0.6 mm 1 mps 736 mmHg 74%
    16:00 +24°C° 0.6 mm 1 mps 736 mmHg 71%
    17:00 +22°C° 0.4 mm 1 mps 735 mmHg 74%
    18:00 +21°C° 0.4 mm 1 mps 735 mmHg 77%
    19:00 +18°C° 0.4 mm 0 mps 735 mmHg 80%
    20:00 +17°C° 0.1 mm 0 mps 735 mmHg 83%
    21:00 +16°C° 0.1 mm 0 mps 735 mmHg 86%
    22:00 +18°C° 0.1 mm 1 mps 735 mmHg 89%
    23:00 +16°C° 0.1 mm 1 mps 735 mmHg 89%

    Tomorrow, 28 May, Tuesday

    Time Temperature Precipitation Wind Pressure Humidity
    00:00 +16°C° 0.1 mm 1 mps 735 mmHg 89%
    01:00 +16°C° 0.1 mm 1 mps 735 mmHg 89%
    02:00 +16°C° 0.7 mm 1 mps 735 mmHg 90%
    03:00 +15°C° 0.7 mm 1 mps 735 mmHg 90%
    04:00 +15°C° 0.7 mm 1 mps 734 mmHg 91%
    05:00 +16°C° 0.8 mm 1 mps 734 mmHg 88%
    06:00 +17°C° 0.8 mm 2 mps 734 mmHg 85%
    07:00 +18°C° 0.8 mm 2 mps 734 mmHg 82%
    08:00 +19°C° 0.5 mm 2 mps 734 mmHg 81%
    09:00 +19°C° 0.5 mm 3 mps 735 mmHg 80%
    10:00 +19°C° 0.5 mm 3 mps 735 mmHg 79%
    11:00 +19°C° 0.8 mm 4 mps 735 mmHg 81%
    12:00 +19°C° 0.8 mm 4 mps 735 mmHg 83%
    13:00 +18°C° 0.8 mm 4 mps 734 mmHg 86%
    14:00 +19°C° 1.4 mm 5 mps 734 mmHg 85%
    15:00 +19°C° 1.4 mm 5 mps 734 mmHg 85%
    16:00 +19°C° 1.4 mm 5 mps 734 mmHg 85%
    17:00 +18°C° 1.1 mm 4 mps 735 mmHg 87%
    18:00 +17°C° 1.1 mm 3 mps 735 mmHg 90%
    19:00 +17°C° 1.1 mm 3 mps 735 mmHg 92%
    20:00 +17°C° 1.2 mm 3 mps 735 mmHg 93%
    21:00 +17°C° 1.2 mm 3 mps 736 mmHg 93%
    22:00 +17°C° 1.2 mm 2 mps 736 mmHg 94%
    23:00 +17°C° 1.4 mm 2 mps 736 mmHg 94%

    Day after tomorrow, 29 May, Wednesday

    Time Temperature Precipitation Wind Pressure Humidity
    00:00 +16°C° 1.4 mm 2 mps 736 mmHg 94%
    01:00 +16°C° 1.4 mm 2 mps 736 mmHg 94%
    02:00 +16°C° 0.9 mm 2 mps 736 mmHg 94%
    03:00 +16°C° 0.9 mm 2 mps 736 mmHg 93%
    04:00 +16°C° 0.9 mm 2 mps 736 mmHg 93%
    05:00 +17°C° 0.5 mm 2 mps 736 mmHg 91%
    06:00 +17°C° 0.5 mm 3 mps 736 mmHg 89%
    07:00 +18°C° 0.5 mm 3 mps 737 mmHg 87%
    08:00 +18°C° 1 mm 3 mps 737 mmHg 85%
    09:00 +19°C° 1 mm 4 mps 737 mmHg 84%
    10:00 +19°C° 1 mm 4 mps 737 mmHg 83%
    11:00 +19°C° 1 mm 4 mps 737 mmHg 82%
    12:00 +19°C° 1 mm 4 mps 737 mmHg 82%
    13:00 +19°C° 1 mm 4 mps 737 mmHg 81%
    14:00 +19°C° 0.3 mm 3 mps 738 mmHg 79%
    15:00 +19°C° 0.3 mm 2 mps 738 mmHg 77%
    16:00 +19°C° 0.3 mm 2 mps 738 mmHg 75%
    17:00 +18°C° 0 mm 2 mps 738 mmHg 79%
    18:00 +18°C° 0 mm 1 mps 738 mmHg 84%
    19:00 +16°C° 0 mm 1 mps 738 mmHg 89%
    20:00 +16°C° 0.1 mm 1 mps 738 mmHg 89%
    21:00 +16°C° 0.1 mm 1 mps 739 mmHg 90%
    22:00 +15°C° 0.1 mm 1 mps 739 mmHg 90%
    23:00 +15°C° 0.2 mm 1 mps 739 mmHg 90%

    30 May, Thursday

    Time Temperature Precipitation Wind Pressure Humidity
    00:00 +15°C° 0.2 mm 1 mps 739 mmHg 90%
    01:00 +15°C° 0.2 mm 1 mps 739 mmHg 89%
    02:00 +15°C° 0.4 mm 1 mps 739 mmHg 90%
    03:00 +14°C° 0.4 mm 1 mps 739 mmHg 91%
    04:00 +14°C° 0.4 mm 1 mps 739 mmHg 92%
    05:00 +15°C° 0.2 mm 1 mps 739 mmHg 88%
    06:00 +16°C° 0.2 mm 1 mps 739 mmHg 83%
    07:00 +18°C° 0.2 mm 2 mps 739 mmHg 79%
    08:00 +19°C° 0.1 mm 2 mps 740 mmHg 73%
    09:00 +20°C° 0.1 mm 2 mps 740 mmHg 67%
    10:00 +21°C° 0.1 mm 3 mps 740 mmHg 60%
    11:00 +21°C° 0 mm 3 mps 740 mmHg 60%
    12:00 +21°C° 0 mm 3 mps 739 mmHg 60%
    13:00 +21°C° 0 mm 3 mps 739 mmHg 60%
    14:00 +21°C° 0 mm 3 mps 739 mmHg 61%
    15:00 +21°C° 0 mm 2 mps 739 mmHg 63%
    16:00 +20°C° 0 mm 2 mps 739 mmHg 64%
    17:00 +19°C° 0 mm 2 mps 740 mmHg 71%
    18:00 +18°C° 0 mm 1 mps 740 mmHg 78%
    19:00 +16°C° 0 mm 1 mps 740 mmHg 85%
    20:00 +15°C° 0 mm 1 mps 740 mmHg 86%
    21:00 +14°C° 0 mm 1 mps 740 mmHg 87%
    22:00 +14°C° 0 mm 1 mps 740 mmHg 89%
    23:00 +14°C° 0 mm 1 mps 740 mmHg 89%

    31 May, Friday

    Time Temperature Precipitation Wind Pressure Humidity
    00:00 +13°C° 0 mm 1 mps 740 mmHg 89%
    01:00 +13°C° 0 mm 1 mps 740 mmHg 89%
    02:00 +13°C° 0 mm 1 mps 740 mmHg 89%
    03:00 +13°C° 0 mm 1 mps 739 mmHg 88%
    04:00 +13°C° 0 mm 1 mps 739 mmHg 88%
    05:00 +14°C° 0.1 mm 1 mps 739 mmHg 83%
    06:00 +16°C° 0.1 mm 1 mps 739 mmHg 78%
    07:00 +18°C° 0.1 mm 1 mps 739 mmHg 73%
    08:00 +19°C° 0.1 mm 1 mps 739 mmHg 69%
    09:00 +20°C° 0.1 mm 1 mps 739 mmHg 65%
    10:00 +21°C° 0.1 mm 1 mps 739 mmHg 61%
    11:00 +22°C° 0.6 mm 1 mps 739 mmHg 62%
    12:00 +21°C° 0.6 mm 2 mps 739 mmHg 64%
    13:00 +21°C° 0.6 mm 2 mps 738 mmHg 66%
    14:00 +21°C° 1.1 mm 2 mps 738 mmHg 69%
    15:00 +20°C° 1.1 mm 2 mps 738 mmHg 71%
    16:00 +20°C° 1.1 mm 2 mps 738 mmHg 73%
    17:00 +19°C° 1.1 mm 2 mps 738 mmHg 78%
    18:00 +19°C° 1.1 mm 1 mps 738 mmHg 83%
    19:00 +16°C° 1.1 mm 0 mps 738 mmHg 87%
    20:00 +16°C° 0.3 mm 1 mps 738 mmHg 87%
    21:00 +16°C° 0.3 mm 1 mps 739 mmHg 88%
    22:00 +16°C° 0.3 mm 1 mps 739 mmHg 88%
    23:00 +15°C° 0 mm 2 mps 739 mmHg 87%

    1 June, Saturday

    Time Temperature Precipitation Wind Pressure Humidity
    00:00 +15°C° 0 mm 2 mps 738 mmHg 86%
    01:00 +14°C° 0 mm 2 mps 738 mmHg 86%
    02:00 +14°C° 0 mm 2 mps 738 mmHg 85%
    03:00 +14°C° 0 mm 2 mps 738 mmHg 85%
    04:00 +14°C° 0 mm 2 mps 738 mmHg 84%
    05:00 +16°C° 0 mm 1 mps 738 mmHg 80%
    06:00 +18°C° 0 mm 1 mps 738 mmHg 75%
    07:00 +19°C° 0 mm 1 mps 738 mmHg 71%
    08:00 +20°C° 0 mm 1 mps 738 mmHg 67%
    09:00 +21°C° 0 mm 1 mps 738 mmHg 63%
    10:00 +22°C° 0 mm 1 mps 738 mmHg 59%
    11:00 +23°C° 0.3 mm 1 mps 738 mmHg 60%
    12:00 +23°C° 0.3 mm 2 mps 738 mmHg 60%
    13:00 +23°C° 0.3 mm 2 mps 738 mmHg 61%
    14:00 +23°C° 1 mm 2 mps 738 mmHg 63%
    15:00 +23°C° 1 mm 2 mps 738 mmHg 65%
    16:00 +23°C° 1 mm 2 mps 738 mmHg 67%
    17:00 +20°C° 0.2 mm 2 mps 738 mmHg 70%
    18:00 +19°C° 0.2 mm 2 mps 738 mmHg 74%
    19:00 +17°C° 0.2 mm 3 mps 738 mmHg 77%
    20:00 +16°C° 0 mm 3 mps 739 mmHg 78%
    21:00 +14°C° 0 mm 3 mps 739 mmHg 78%
    22:00 +13°C° 0 mm 3 mps 739 mmHg 78%
    23:00 +13°C° 0 mm 3 mps 739 mmHg 78%
    Show more